x

East Superior -70 Nm Ne Marquette, Mi (45004) Wave Buoy

10:50pm - Wed 22nd Oct 2014 All times are CDT. -5 hours from GMT.

  • Sig Wave height 2.0ft
  • Swell Direction
  • Peak Period 4s
  • Average Period 3s
  • Wind
    18mph, 22mph gusts
  • Sea Temp 42°f
  • Air Temp 43°f
  • Sea Pressure 1023mb
  • East Superior -70 Nm Ne Marquette, Mi
  • East Superior -70 Nm Ne Marquette, Mi

More Historic Weather Station data

Upgrade to MSW Pro to gain access to the past 30 days of data for over 8000 Wavebouys and Weather Stations around the globe.

Join Pro

Comparision Forecast

View Surf forecast
   
Wed 10/22 10:50pm 2ft 4s 3s 18 22 mph 1023mb 42f 43f
9:50pm 2.5ft 4s 4s 18 20 mph 1023.4mb 42f 44f
8:50pm 2.5ft 4s 4s 13 16 mph 1023.9mb 42f 43f
7:50pm 2.5ft 4s 3s 18 20 mph 1023.7mb 42f 42f
6:50pm 2ft 4s 3s 16 20 mph 1024.2mb 42f 42f
5:50pm 2.5ft 4s 3s 16 18 mph 1024.5mb 42f 42f
4:50pm 2.5ft 4s 3s 16 18 mph 1025.1mb 42f 42f
3:50pm 2ft 4s 3s 16 20 mph 1025.5mb 42f 42f
2:50pm 2.5ft 4s 3s 16 18 mph 1026.4mb 42f 43f
1:50pm 2ft 4s 3s 13 16 mph 1027.3mb 42f 42f
12:50pm 2ft 4s 3s 13
mph
1028mb 42f 42f
11:50am 2ft 5s 4s 13 16 mph 1028.5mb 42f 42f
10:50am 2ft 5s 4s 13 16 mph 1028.9mb 42f 42f
9:50am 2.5ft 5s 4s 13 16 mph 1028.9mb 42f 42f
8:50am 2.5ft 4s 4s 13 16 mph 1028.8mb 42f 41f
7:50am 2.5ft 4s 3s 16 18 mph 1028.7mb 42f 40f
6:50am 2.5ft 5s 4s 13 16 mph 1028.7mb 42f 40f
5:50am 2.5ft 4s 4s 16 18 mph 1028.2mb 42f 40f
4:50am 2.5ft 4s 3s 16 18 mph 1028mb 42f 41f
3:50am 2.5ft 4s 3s 16 18 mph 1027.7mb 42f 41f
2:50am 2ft 4s 3s 16 18 mph 1027.4mb 42f 41f
1:50am 2ft 4s 3s 16 20 mph 1027.4mb 42f 41f
12:50am 1.3ft 3s 3s 16 20 mph 1027.1mb 42f 42f
Tue 10/21 11:50pm 1ft 4s 3s 13 16 mph 1027.2mb 42f 42f
10:50pm 1ft 4s 3s 4
mph
1027.6mb 42f 39f
9:50pm 1ft 4s 3s 4
mph
1027.5mb 42f 39f
8:50pm 1ft 4s 4s 4
mph
1027.2mb 42f 38f
7:50pm 1ft 5s 4s 4 7 mph 1026.9mb 42f 38f
6:50pm 1.3ft 5s 4s 2 4 mph 1026.9mb 42f 38f
5:50pm 1.6ft 5s 4s 4 7 mph 1026.6mb 42f 38f
4:50pm 1.6ft 4s 4s 2 4 mph 1026.4mb 42f 39f
3:50pm 1.6ft 5s 4s 4
mph
1026.6mb 42f 38f
2:50pm 2ft 4s 4s 4 7 mph 1026.3mb 42f 38f
1:50pm 2ft 5s 4s 7 9 mph 1026.3mb 42f 37f
12:50pm 2.5ft 5s 4s 7 9 mph 1026.4mb 42f 37f
11:50am 2.5ft 4s 4s 7 9 mph 1026.7mb 42f 37f
10:50am 2.5ft 5s 4s 11 13 mph 1026.4mb 42f 37f
9:50am 2.5ft 5s 4s 11 16 mph 1026mb 42f 37f
8:50am 2.5ft 4s 4s 16 18 mph 1025.3mb 42f 37f
7:50am 3ft 5s 4s 16 18 mph 1024.3mb 42f 39f
6:50am 3.5ft 5s 4s 16 18 mph 1023.2mb 42f 39f
5:50am 3.5ft 5s 4s 16 20 mph 1022.6mb 42f 40f
4:50am 3.5ft 5s 4s 20 22 mph 1021.8mb 42f 40f
3:50am 3.5ft 5s 4s 18 22 mph 1021.3mb 42f 40f
2:50am 4ft 5s 4s 18 22 mph 1020.5mb 42f 40f
1:50am 4ft 5s 4s 18 20 mph 1020.2mb 42f 40f
12:50am 4.5ft 6s 4s 18 20 mph 1019.4mb 42f 41f
Mon 10/20 11:50pm 4.5ft 6s 4s 20 22 mph 1018.8mb 42f 41f
10:50pm 4.5ft 6s 4s 20 22 mph 1018.4mb 42f 41f
9:50pm 4.5ft 6s 5s 22 25 mph 1017.3mb 42f 42f
8:50pm 4.5ft 6s 4s 22 25 mph 1016.7mb 42f 42f
7:50pm 4.5ft 5s 4s 22 27 mph 1015.7mb 42f 42f
6:50pm 4.5ft 5s 4s 20 25 mph 1015.2mb 42f 42f
5:50pm 4ft 5s 4s 20 22 mph 1014.2mb 42f 42f
4:50pm 3.5ft 5s 4s 20 25 mph 1013.1mb 42f 42f
3:50pm 3.5ft 4s 4s 20 25 mph 1012mb 42f 43f
2:50pm 3.5ft 4s 4s 18 22 mph 1011.4mb 42f 43f
1:50pm 3ft 4s 4s 18 20 mph 1010.9mb 42f 43f
12:50pm 2.5ft 4s 4s 16 20 mph 1010.6mb 42f 43f
11:50am 2ft 3s 3s 16 18 mph 1010.4mb 42f 43f
10:50am 1.6ft 4s 3s 16 18 mph 1010mb 42f 43f
9:50am 1.6ft 4s 3s 13 16 mph 1009.6mb 42f 43f
8:50am 1.6ft 3s 3s 13 16 mph 1009.1mb 42f 43f
7:50am 1.6ft 3s 3s 13 16 mph 1008.5mb 42f 43f
6:50am 1.6ft 3s 3s 13 16 mph 1008mb 42f 43f
5:50am 1.3ft 3s 3s 13 16 mph 1007.3mb 42f 43f
4:50am 1.3ft 4s 3s 11 13 mph 1007mb 42f 43f
3:50am 1.6ft 4s 4s 11 13 mph 1006.7mb 42f 43f
2:50am 1.3ft 4s 4s 9 11 mph 1006.2mb 42f 43f
1:50am 1.6ft 4s 4s 11
mph
1006.2mb 42f 44f
12:50am 2ft 4s 4s 4 7 mph 1006mb 42f 44f
Sun 10/19 10:50pm 2ft 5s 4s 7 9 mph 1006.4mb 42f 44f
9:50pm 2ft 5s 4s 9 11 mph 1006.7mb 42f 44f
8:50pm 2.5ft 5s 4s 11 13 mph 1007.3mb 42f 44f
7:50pm 2.5ft 5s 4s 11 13 mph 1007.9mb 42f 44f
6:50pm 3ft 5s 4s 16 20 mph 1008mb 42f 44f
5:50pm 2.5ft 5s 4s 16 18 mph 1008.2mb 42f 44f
4:50pm 3ft 5s 4s 13 16 mph 1008.5mb 42f 44f
3:50pm 3.5ft 5s 4s 16 18 mph 1009mb 42f 44f
2:50pm 3ft 5s 4s 13 16 mph 1010.2mb 42f 43f
1:50pm 3ft 5s 4s 11 16 mph 1011.6mb 42f 43f
12:50pm 3.5ft 5s 4s 16 18 mph 1012.6mb 42f 42f
11:50am 4ft 5s 4s 18 20 mph 1014.1mb 42f 41f
10:50am 3ft 5s 4s 20 22 mph 1014.6mb 42f 40f
9:50am 2.5ft 4s 4s 20 25 mph 1015.5mb 42f 40f
8:50am 1.6ft 3s 3s 18 22 mph 1016.3mb 42f 40f
7:50am 1ft 3s 3s 16 18 mph 1017.2mb 42f 40f
6:50am 0.7ft  -  3s 13 16 mph 1017.7mb 42f 39f
5:50am 0.7ft  -  3s 11
mph
1018.5mb 42f 39f